Flag for Faroe Islands

Past Weather in Tórshavn, Faroe Islands — Yesterday and Last 2 Weeks

Currently: 43 °F. Passing clouds. (Weather station: Soervaag / Vagar, Faroe Islands). See more current weather

Past Weather in Tórshavn — Graph

°F

Tórshavn Temperature Yesterday

Maximum temperature yesterday: 43 °F (at 8:50 pm)
Minimum temperature yesterday: 34 °F (at 12:50 am)
Average temperature yesterday: 39 °F

High & Low Weather Summary for the Past Weeks

 TemperatureHumidityPressure
High45 °F (Jan 5, 11:50 am)100% (Jan 2, 6:50 pm)30.48 "Hg (Jan 2, 6:50 pm)
Low23 °F (Jan 2, 9:50 am)51% (Jan 9, 5:20 pm)29.47 "Hg (Jan 9, 5:50 am)
Average36 °F84%30.06 "Hg
* Reported Dec 31 11:20 pm — Jan 15 11:20 pm, Tórshavn. Weather by CustomWeather, © 2021

Note: Actual official high and low records may vary slightly from our data, if they occured in-between our weather recording intervals... More about our weather records

Tórshavn Weather History for the Previous 24 Hours

Scroll right to see more
 ConditionsComfort  
Time TempWeatherWind HumidityBarometerVisibility
11:20 pm
Fri, Jan 15
41 °FPassing clouds.30 mph87%29.74 "HgN/A
10:50 pm41 °FPassing clouds.28 mph87%29.77 "HgN/A
10:20 pm41 °FPassing clouds.25 mph87%29.80 "HgN/A
9:50 pm43 °FPassing clouds.25 mph81%29.83 "HgN/A
9:20 pm43 °FPassing clouds.22 mph81%29.86 "HgN/A
8:50 pm43 °FPassing clouds.20 mph87%29.86 "HgN/A
8:20 pm41 °FPassing clouds.20 mph93%29.89 "HgN/A
7:50 pm41 °FPassing clouds.18 mph87%29.92 "HgN/A
7:20 pm41 °FPassing clouds.16 mph87%29.92 "HgN/A
6:50 pm41 °FPassing clouds.15 mph87%29.95 "HgN/A
6:20 pm41 °FPassing clouds.15 mph93%29.98 "HgN/A
5:50 pm41 °FPassing clouds.14 mph93%29.98 "HgN/A
5:20 pm41 °FPassing clouds.14 mph93%29.98 "HgN/A
4:50 pm41 °FPassing clouds.14 mph93%30.01 "HgN/A
4:20 pm41 °FPassing clouds.15 mph100%30.01 "HgN/A
3:50 pm41 °FLight rain. Passing clouds.15 mph100%30.04 "Hg4 mi
3:20 pm41 °FLight rain. Partly sunny.18 mph100%30.04 "HgN/A
2:50 pm41 °FDrizzle. Partly sunny.15 mph100%30.07 "HgN/A
2:20 pm41 °FPartly sunny.15 mph93%30.09 "HgN/A
1:50 pm41 °FPartly sunny.14 mph93%30.09 "HgN/A
1:20 pm41 °FPartly sunny.15 mph93%30.12 "HgN/A
12:50 pm41 °FScattered clouds.15 mph93%30.15 "HgN/A
12:20 pm41 °FPartly sunny.12 mph93%30.15 "HgN/A
11:50 am39 °FPassing clouds.10 mph100%30.15 "HgN/A
11:20 am39 °FPassing clouds.5 mph93%30.18 "HgN/A
10:50 am39 °FChilly.7 mph100%30.18 "HgN/A
10:20 am39 °FPassing clouds.6 mph93%30.18 "HgN/A
9:50 am39 °FPassing clouds.5 mph93%30.18 "HgN/A
9:20 am39 °FPassing clouds.10 mph93%30.18 "HgN/A
8:50 am39 °FPassing clouds.5 mph100%30.18 "HgN/A
8:20 am37 °FPassing clouds.5 mph100%30.18 "HgN/A
7:50 am39 °FPassing clouds.5 mph100%30.21 "HgN/A
7:20 am39 °FPassing clouds.6 mph100%30.18 "HgN/A
6:20 am39 °FPassing clouds.6 mph100%30.21 "HgN/A
5:50 am39 °FPartly cloudy.2 mph100%30.21 "HgN/A
5:20 am39 °FPassing clouds.2 mph100%30.21 "HgN/A
4:50 am37 °FPassing clouds.5 mph100%30.21 "HgN/A
4:20 am37 °FPassing clouds.1 mph100%30.21 "HgN/A
3:50 am37 °FPassing clouds.1 mph93%30.21 "HgN/A
3:20 am37 °FPassing clouds.1 mph93%30.21 "HgN/A
2:50 am36 °FPassing clouds.2 mph93%30.21 "HgN/A
2:20 am36 °FPassing clouds.2 mph93%30.21 "HgN/A
1:50 am36 °FPassing clouds.2 mph93%30.21 "HgN/A
1:20 am34 °FChilly.1 mph100%30.21 "HgN/A
12:50 am34 °FChilly.1 mph100%30.21 "HgN/A
12:20 am36 °FPassing clouds.1 mph93%30.21 "HgN/A
Weather by CustomWeather, © 2021

See weather overview